UAE30V OMDB-OOMS

Flight info

Callsign UAE30V
Flight time 0h 43m
Altitude 21000
Route ANVIX L223 TARDI N629 MUSUK T511 MCT
Aircraft A359/H-SDE2E3GHIJ3J4J5LM1ORWXY/LB1D1

Departure

Time 2026-05-08 15:47
Airport Dubai International Airport (OMDB)

Arrival

Time 2026-05-08 16:31
Airport Muscat International Airport (OOMS)
Time Latitude Longitude Altitude Speed Heading
2026-05-08 15:09 25.24959 55.36141 28 ft 0 kts 211°
2026-05-08 15:29 25.24971 55.36149 27 ft 2 kts 208°
2026-05-08 15:30 25.24986 55.36158 27 ft 2 kts 207°
2026-05-08 15:30 25.25000 55.36166 26 ft 2 kts 203°
2026-05-08 15:30 25.25016 55.36172 26 ft 2 kts 198°
2026-05-08 15:30 25.25032 55.36177 26 ft 2 kts 188°
2026-05-08 15:31 25.25048 55.36177 27 ft 2 kts 168°
2026-05-08 15:31 25.25063 55.36171 27 ft 2 kts 138°
2026-05-08 15:31 25.25069 55.36164 27 ft 0 kts 127°
2026-05-08 15:34 25.25067 55.36167 27 ft 4 kts 126°
2026-05-08 15:35 25.25086 55.36204 27 ft 11 kts 17°
2026-05-08 15:35 25.25162 55.36174 28 ft 13 kts 316°
2026-05-08 15:35 25.25215 55.36088 28 ft 15 kts 300°
2026-05-08 15:35 25.25271 55.35983 28 ft 17 kts 300°
2026-05-08 15:36 25.25336 55.35865 28 ft 19 kts 301°
2026-05-08 15:36 25.25409 55.35733 28 ft 21 kts 301°
2026-05-08 15:36 25.25468 55.35625 28 ft 9 kts 301°
2026-05-08 15:36 25.25507 55.35554 28 ft 13 kts 301°
2026-05-08 15:37 25.25562 55.35454 27 ft 17 kts 301°
2026-05-08 15:37 25.25628 55.35337 27 ft 19 kts 302°
2026-05-08 15:37 25.25699 55.35226 27 ft 15 kts 321°
2026-05-08 15:37 25.25798 55.35239 27 ft 16 kts 28°
2026-05-08 15:38 25.25880 55.35295 27 ft 14 kts 32°
2026-05-08 15:38 25.25928 55.35328 27 ft 0 kts 32°
2026-05-08 15:39 25.25933 55.35331 27 ft 3 kts 32°
2026-05-08 15:39 25.25968 55.35361 27 ft 10 kts 47°
2026-05-08 15:39 25.25996 55.35449 27 ft 15 kts 79°
2026-05-08 15:39 25.25970 55.35574 27 ft 19 kts 121°
2026-05-08 15:40 25.25899 55.35705 27 ft 21 kts 120°
2026-05-08 15:40 25.25818 55.35847 28 ft 23 kts 122°
2026-05-08 15:40 25.25731 55.36003 28 ft 25 kts 121°
2026-05-08 15:40 25.25643 55.36162 28 ft 25 kts 121°
2026-05-08 15:41 25.25548 55.36335 28 ft 27 kts 121°
2026-05-08 15:41 25.25476 55.36465 28 ft 16 kts 121°
2026-05-08 15:41 25.25471 55.36474 28 ft 1 kts 121°
2026-05-08 15:41 25.25453 55.36507 28 ft 9 kts 121°
2026-05-08 15:42 25.25414 55.36577 28 ft 12 kts 121°
2026-05-08 15:42 25.25366 55.36665 28 ft 15 kts 121°
2026-05-08 15:42 25.25307 55.36772 28 ft 18 kts 121°
2026-05-08 15:42 25.25237 55.36895 28 ft 20 kts 122°
2026-05-08 15:43 25.25159 55.37031 29 ft 22 kts 122°
2026-05-08 15:43 25.25077 55.37179 32 ft 23 kts 121°
2026-05-08 15:43 25.24994 55.37333 35 ft 24 kts 121°
2026-05-08 15:43 25.24912 55.37480 37 ft 20 kts 121°
2026-05-08 15:44 25.24845 55.37600 41 ft 17 kts 121°
2026-05-08 15:44 25.24798 55.37686 43 ft 12 kts 121°
2026-05-08 15:44 25.24753 55.37766 45 ft 13 kts 121°
2026-05-08 15:44 25.24704 55.37856 46 ft 14 kts 121°
2026-05-08 15:45 25.24682 55.37945 44 ft 10 kts 64°
2026-05-08 15:45 25.24696 55.37964 44 ft 0 kts 44°
2026-05-08 15:45 25.24699 55.37966 44 ft 2 kts 43°
2026-05-08 15:46 25.24731 55.37992 44 ft 9 kts 33°
2026-05-08 15:46 25.24800 55.38022 46 ft 10 kts 342°
2026-05-08 15:46 25.24853 55.37953 44 ft 14 kts 301°
2026-05-08 15:46 25.24928 55.37817 44 ft 42 kts 301°
2026-05-08 15:47 25.25216 55.37299 32 ft 116 kts 301°
2026-05-08 15:47 25.25750 55.36329 29 ft 177 kts 300°
2026-05-08 15:47 25.26422 55.35085 514 ft 193 kts 299°
2026-05-08 15:47 25.27103 55.33794 1177 ft 197 kts 298°
2026-05-08 15:48 25.28531 55.30975 2656 ft 221 kts 298°
2026-05-08 15:48 25.29077 55.29398 3345 ft 223 kts 278°
2026-05-08 15:48 25.28837 55.27697 3836 ft 231 kts 251°
2026-05-08 15:49 25.28182 55.26050 4350 ft 236 kts 246°
2026-05-08 15:49 25.27460 55.24410 4932 ft 239 kts 246°
2026-05-08 15:49 25.26730 55.22744 5494 ft 241 kts 245°
2026-05-08 15:49 25.26007 55.21072 6012 ft 246 kts 245°
2026-05-08 15:50 25.25123 55.19404 6330 ft 260 kts 232°
2026-05-08 15:50 25.23698 55.18104 6592 ft 275 kts 205°
2026-05-08 15:50 25.21801 55.17762 7006 ft 282 kts 173°
2026-05-08 15:50 25.19999 55.18584 7521 ft 286 kts 142°
2026-05-08 15:51 25.18705 55.20282 8024 ft 291 kts 124°
2026-05-08 15:51 25.17618 55.22177 8556 ft 294 kts 124°
2026-05-08 15:51 25.16505 55.24086 9112 ft 296 kts 125°
2026-05-08 15:51 25.15352 55.25981 9677 ft 298 kts 126°
2026-05-08 15:52 25.14169 55.27869 10203 ft 299 kts 127°
2026-05-08 15:52 25.12967 55.29757 10734 ft 301 kts 127°
2026-05-08 15:52 25.11768 55.31624 11247 ft 302 kts 128°
2026-05-08 15:52 25.10631 55.33581 11808 ft 304 kts 120°
2026-05-08 15:53 25.09702 55.35686 12350 ft 306 kts 117°
2026-05-08 15:53 25.08825 55.37831 12906 ft 307 kts 116°
2026-05-08 15:53 25.07947 55.39988 13434 ft 309 kts 117°
2026-05-08 15:53 25.07058 55.42165 13939 ft 311 kts 116°
2026-05-08 15:54 25.06188 55.44392 14241 ft 321 kts 115°
2026-05-08 15:54 25.05122 55.46607 14433 ft 331 kts 124°
2026-05-08 15:54 25.03832 55.48729 14638 ft 341 kts 127°
2026-05-08 15:54 25.02415 55.50884 14850 ft 351 kts 129°
2026-05-08 15:55 25.00917 55.53056 15039 ft 360 kts 129°
2026-05-08 15:55 24.97764 55.57522 15422 ft 377 kts 129°
2026-05-08 15:55 24.96149 55.59810 15642 ft 383 kts 129°
2026-05-08 15:56 24.94519 55.62130 15897 ft 387 kts 129°
2026-05-08 15:56 24.92872 55.64483 16279 ft 388 kts 128°
2026-05-08 15:56 24.91218 55.66852 16646 ft 390 kts 128°
2026-05-08 15:56 24.89557 55.69232 16964 ft 393 kts 128°
2026-05-08 15:57 24.87891 55.71620 17291 ft 395 kts 128°
2026-05-08 15:57 24.86204 55.74036 17572 ft 398 kts 129°
2026-05-08 15:57 24.84518 55.76449 17948 ft 399 kts 128°
2026-05-08 15:57 24.82819 55.78879 18292 ft 400 kts 129°
2026-05-08 15:58 24.81118 55.81310 18527 ft 403 kts 129°
2026-05-08 15:58 24.79411 55.83746 18762 ft 406 kts 129°
2026-05-08 15:58 24.77684 55.86211 19045 ft 408 kts 129°
2026-05-08 15:58 24.75947 55.88690 19354 ft 409 kts 129°
2026-05-08 15:59 24.74271 55.91080 19656 ft 409 kts 129°
2026-05-08 15:59 24.72528 55.93564 19923 ft 412 kts 129°
2026-05-08 15:59 24.71364 55.95222 20064 ft 414 kts 129°
2026-05-08 15:59 24.69599 55.97735 20299 ft 417 kts 129°
2026-05-08 16:00 24.67224 56.01117 20710 ft 418 kts 129°
2026-05-08 16:00 24.66045 56.02795 20815 ft 422 kts 129°
2026-05-08 16:00 24.64215 56.05395 20852 ft 437 kts 129°
2026-05-08 16:00 24.62321 56.08082 20850 ft 449 kts 129°
2026-05-08 16:01 24.60437 56.10758 20839 ft 453 kts 129°
2026-05-08 16:01 24.58510 56.13494 20840 ft 453 kts 129°
2026-05-08 16:01 24.56583 56.16232 20839 ft 452 kts 129°
2026-05-08 16:01 24.54627 56.18879 20838 ft 452 kts 131°
2026-05-08 16:02 24.52575 56.21494 20853 ft 452 kts 133°
2026-05-08 16:02 24.50493 56.24085 20851 ft 452 kts 133°
2026-05-08 16:02 24.48410 56.26667 20843 ft 452 kts 133°
2026-05-08 16:02 24.46321 56.29269 20828 ft 451 kts 133°
2026-05-08 16:03 24.44256 56.31864 20803 ft 452 kts 133°
2026-05-08 16:03 24.42188 56.34473 20792 ft 452 kts 132°
2026-05-08 16:03 24.40133 56.37079 20778 ft 452 kts 132°
2026-05-08 16:03 24.38076 56.39691 20769 ft 452 kts 132°
2026-05-08 16:04 24.36084 56.42221 20772 ft 451 kts 132°
2026-05-08 16:04 24.34032 56.44827 20748 ft 451 kts 132°
2026-05-08 16:04 24.31977 56.47435 20742 ft 452 kts 132°
2026-05-08 16:04 24.29916 56.50048 20752 ft 452 kts 133°
2026-05-08 16:05 24.27923 56.52699 20732 ft 453 kts 130°
2026-05-08 16:05 24.26046 56.55475 20733 ft 452 kts 127°
2026-05-08 16:05 24.24294 56.58299 20751 ft 454 kts 123°
2026-05-08 16:05 24.22650 56.61254 20740 ft 455 kts 122°
2026-05-08 16:06 24.21024 56.64238 20745 ft 456 kts 122°
2026-05-08 16:06 24.19409 56.67230 20770 ft 456 kts 122°
2026-05-08 16:06 24.17800 56.70226 20762 ft 456 kts 121°
2026-05-08 16:06 24.16192 56.73226 20770 ft 456 kts 122°
2026-05-08 16:07 24.14584 56.76230 20763 ft 456 kts 121°
2026-05-08 16:07 24.12979 56.79229 20786 ft 456 kts 122°
2026-05-08 16:07 24.11377 56.82221 20779 ft 456 kts 121°
2026-05-08 16:07 24.09791 56.85181 20767 ft 456 kts 121°
2026-05-08 16:08 24.08182 56.88184 20785 ft 457 kts 121°
2026-05-08 16:08 24.06572 56.91188 20794 ft 458 kts 121°
2026-05-08 16:08 24.04959 56.94195 20792 ft 459 kts 121°
2026-05-08 16:08 24.03347 56.97198 20775 ft 459 kts 121°
2026-05-08 16:09 24.01722 57.00224 20780 ft 459 kts 121°
2026-05-08 16:09 24.00107 57.03228 20782 ft 459 kts 121°
2026-05-08 16:09 23.98486 57.06244 20782 ft 459 kts 121°
2026-05-08 16:09 23.96860 57.09265 20783 ft 459 kts 121°
2026-05-08 16:10 23.95241 57.12273 20781 ft 459 kts 121°
2026-05-08 16:10 23.93644 57.15237 20779 ft 458 kts 121°
2026-05-08 16:10 23.92020 57.18250 20781 ft 458 kts 121°
2026-05-08 16:10 23.90406 57.21242 20782 ft 458 kts 121°
2026-05-08 16:11 23.88785 57.24246 20781 ft 458 kts 121°
2026-05-08 16:11 23.87162 57.27251 20777 ft 458 kts 121°
2026-05-08 16:11 23.85540 57.30253 20769 ft 458 kts 121°
2026-05-08 16:11 23.83921 57.33248 20783 ft 457 kts 121°
2026-05-08 16:12 23.82484 57.36349 20769 ft 459 kts 111°
2026-05-08 16:12 23.81760 57.39688 20591 ft 459 kts 96°
2026-05-08 16:12 23.81896 57.43163 20359 ft 459 kts 81°
2026-05-08 16:12 23.82551 57.46563 20132 ft 456 kts 78°
2026-05-08 16:13 23.83269 57.49915 19884 ft 450 kts 78°
2026-05-08 16:13 23.83968 57.53250 19497 ft 447 kts 78°
2026-05-08 16:13 23.84638 57.56542 19093 ft 443 kts 78°
2026-05-08 16:13 23.85291 57.59813 18706 ft 440 kts 79°
2026-05-08 16:14 23.85933 57.63069 18331 ft 436 kts 79°
2026-05-08 16:14 23.86565 57.66299 17924 ft 433 kts 79°
2026-05-08 16:14 23.87188 57.69496 17465 ft 427 kts 79°
2026-05-08 16:14 23.87788 57.72661 16989 ft 423 kts 81°
2026-05-08 16:15 23.88030 57.75844 16555 ft 418 kts 93°
2026-05-08 16:15 23.87698 57.78983 16121 ft 415 kts 99°
2026-05-08 16:15 23.87207 57.82073 15676 ft 412 kts 101°
2026-05-08 16:15 23.86701 57.85137 15246 ft 404 kts 101°
2026-05-08 16:16 23.86222 57.88062 14816 ft 378 kts 101°
2026-05-08 16:16 23.85777 57.90801 14395 ft 355 kts 101°
2026-05-08 16:16 23.85360 57.93380 13974 ft 347 kts 101°
2026-05-08 16:16 23.84937 57.95991 13566 ft 344 kts 101°
2026-05-08 16:17 23.84521 57.98568 13114 ft 342 kts 101°
2026-05-08 16:17 23.84247 58.00262 12816 ft 341 kts 101°
2026-05-08 16:17 23.83694 58.03687 11857 ft 353 kts 101°
2026-05-08 16:17 23.83274 58.06288 11418 ft 337 kts 101°
2026-05-08 16:18 23.82881 58.08729 11028 ft 315 kts 101°
2026-05-08 16:18 23.82510 58.11031 10522 ft 301 kts 101°
2026-05-08 16:18 23.82144 58.13283 10072 ft 301 kts 101°
2026-05-08 16:18 23.81780 58.15530 9650 ft 300 kts 101°
2026-05-08 16:19 23.81417 58.17766 9324 ft 297 kts 101°
2026-05-08 16:19 23.81060 58.19962 9090 ft 297 kts 101°
2026-05-08 16:19 23.80701 58.22175 8866 ft 294 kts 101°
2026-05-08 16:19 23.80345 58.24363 8649 ft 291 kts 101°
2026-05-08 16:20 23.79991 58.26530 8371 ft 290 kts 101°
2026-05-08 16:20 23.79639 58.28693 7944 ft 288 kts 101°
2026-05-08 16:20 23.79291 58.30830 7527 ft 279 kts 101°
2026-05-08 16:20 23.78961 58.32854 7229 ft 261 kts 101°
2026-05-08 16:21 23.78653 58.34735 6823 ft 252 kts 100°
2026-05-08 16:21 23.78345 58.36614 6271 ft 250 kts 99°
2026-05-08 16:21 23.78040 58.38482 5711 ft 249 kts 99°
2026-05-08 16:21 23.77737 58.40339 5184 ft 249 kts 99°
2026-05-08 16:22 23.77439 58.42181 4841 ft 240 kts 99°
2026-05-08 16:22 23.77152 58.43927 4540 ft 229 kts 100°
2026-05-08 16:22 23.76872 58.45636 4249 ft 227 kts 99°
2026-05-08 16:22 23.76600 58.47290 4036 ft 216 kts 100°
2026-05-08 16:23 23.76339 58.48862 3942 ft 204 kts 100°
2026-05-08 16:23 23.76093 58.50364 3717 ft 199 kts 99°
2026-05-08 16:23 23.75840 58.51847 3613 ft 199 kts 102°
2026-05-08 16:23 23.75178 58.53141 3579 ft 201 kts 136°
2026-05-08 16:24 23.73952 58.53888 3265 ft 207 kts 165°
2026-05-08 16:24 23.72537 58.53961 3032 ft 201 kts 186°
2026-05-08 16:24 23.71170 58.53717 2994 ft 199 kts 191°
2026-05-08 16:24 23.69809 58.53424 2999 ft 199 kts 192°
2026-05-08 16:25 23.68450 58.53128 2996 ft 199 kts 192°
2026-05-08 16:25 23.67087 58.52831 3008 ft 199 kts 192°
2026-05-08 16:25 23.65730 58.52534 2995 ft 199 kts 192°
2026-05-08 16:25 23.64370 58.52238 2993 ft 199 kts 192°
2026-05-08 16:26 23.63141 58.51608 2988 ft 198 kts 227°
2026-05-08 16:26 23.62545 58.50310 3008 ft 195 kts 257°
2026-05-08 16:26 23.62403 58.48843 2991 ft 194 kts 268°
2026-05-08 16:26 23.62321 58.47369 2968 ft 194 kts 266°
2026-05-08 16:27 23.62207 58.45927 2804 ft 188 kts 265°
2026-05-08 16:27 23.62088 58.44519 2544 ft 185 kts 265°
2026-05-08 16:27 23.61977 58.43128 2290 ft 182 kts 266°
2026-05-08 16:27 23.61870 58.41782 2052 ft 173 kts 266°
2026-05-08 16:28 23.61769 58.40514 1851 ft 167 kts 266°
2026-05-08 16:28 23.61667 58.39254 1650 ft 165 kts 268°
2026-05-08 16:28 23.61571 58.38050 1447 ft 155 kts 268°
2026-05-08 16:28 23.61482 58.36924 1261 ft 144 kts 268°
2026-05-08 16:29 23.61394 58.35872 1106 ft 135 kts 267°
2026-05-08 16:29 23.61302 58.34864 917 ft 133 kts 266°
2026-05-08 16:29 23.61233 58.33863 782 ft 132 kts 268°
2026-05-08 16:29 23.61155 58.32860 665 ft 133 kts 265°
2026-05-08 16:30 23.61069 58.31854 508 ft 133 kts 264°
2026-05-08 16:30 23.60995 58.30863 329 ft 134 kts 265°
2026-05-08 16:30 23.60916 58.29851 103 ft 133 kts 263°
2026-05-08 16:30 23.60831 58.28891 43 ft 114 kts 265°
2026-05-08 16:31 23.60778 58.28143 39 ft 86 kts 266°
2026-05-08 16:31 23.60730 58.27546 40 ft 73 kts 265°
2026-05-08 16:31 23.60695 58.27101 43 ft 26 kts 265°
2026-05-08 16:31 23.60681 58.26917 43 ft 25 kts 265°
2026-05-08 16:32 23.60665 58.26720 42 ft 27 kts 265°
2026-05-08 16:32 23.60653 58.26566 41 ft 8 kts 265°
2026-05-08 16:32 23.60627 58.26504 41 ft 11 kts 219°
2026-05-08 16:32 23.60547 58.26487 40 ft 13 kts 178°
2026-05-08 16:33 23.60447 58.26498 40 ft 16 kts 172°
2026-05-08 16:33 23.60393 58.26583 40 ft 16 kts 86°
2026-05-08 16:33 23.60403 58.26713 40 ft 18 kts 85°
2026-05-08 16:33 23.60413 58.26860 40 ft 21 kts 85°
2026-05-08 16:34 23.60425 58.27027 40 ft 23 kts 85°
2026-05-08 16:34 23.60438 58.27159 40 ft 16 kts 83°
2026-05-08 16:34 23.60451 58.27288 40 ft 18 kts 84°
2026-05-08 16:34 23.60464 58.27437 40 ft 21 kts 84°
2026-05-08 16:35 23.60474 58.27564 40 ft 13 kts 92°
2026-05-08 16:35 23.60425 58.27655 40 ft 15 kts 128°
2026-05-08 16:35 23.60351 58.27751 40 ft 18 kts 133°
2026-05-08 16:35 23.60265 58.27857 40 ft 18 kts 131°
2026-05-08 16:36 23.60243 58.27890 40 ft 5 kts 121°
2026-05-08 16:36 23.60234 58.27955 40 ft 11 kts 88°
2026-05-08 16:36 23.60242 58.28051 40 ft 14 kts 84°
2026-05-08 16:36 23.60252 58.28168 40 ft 17 kts 85°
2026-05-08 16:37 23.60258 58.28246 40 ft 8 kts 85°
2026-05-08 16:37 23.60254 58.28303 40 ft 5 kts 126°
2026-05-08 16:37 23.60211 58.28320 40 ft 7 kts 169°
2026-05-08 16:37 23.60174 58.28325 40 ft 7 kts 174°
2026-05-08 16:38 23.60158 58.28327 40 ft 0 kts 175°